Regional Weather Roundup
Issued by NWS Cleveland, OH

Home | Current Version | Previous Version | Graphics & Text | Print | Product List | Glossary On
Versions: 1 2 3 4 5 6 7 8 9 10 11 12 13 14 15 16 17 18 19 20 21 22 23 24 25 26 27 28 29 30 31 32 33 34 35 36 37 38 39 40 41 42 43 44 45 46 47 48 49 50
000
ASUS41 KCLE 222012
RWRCLE
OHIO REGIONAL WEATHER ROUNDUP
NATIONAL WEATHER SERVICE WILMINGTON, OH
400 PM EDT WED MAR 22 2017

NOTE: "FAIR" INDICATES FEW OR NO CLOUDS BELOW 12,000 FEET WITH NO
SIGNIFICANT WEATHER AND/OR OBSTRUCTIONS TO VISIBILITY.

OHZ001>008-015>018-024>027-034-035-043-044-222100-
   NORTHWEST OHIO

CITY           SKY/WX    TMP DP  RH WIND       PRES   REMARKS
DEFIANCE       FAIR      33  12  41 VRB5      30.54F WCI  29
FINDLAY        FAIR      36  14  40 N8        30.52S
TOLEDO EXPRESS FAIR      34  11  38 VRB3      30.53F
TOLEDO EXEC    FAIR      34  16  47 E5        30.56F WCI  30
LIMA           FAIR      35  17  47 N10       30.50F WCI  27
$$

OHZ009>014-019>023-028>033-038-089-222100-
   NORTHEAST OHIO

CITY           SKY/WX    TMP DP  RH WIND       PRES   REMARKS
CLE-HOPKINS    FAIR      31  11  43 N7        30.56S WCI  24
CLE-LAKEFRONT  FAIR      29  16  58 N10       30.54S WCI  20
CUY CO. ARPT   MOSUNNY   28  14  54 N14       30.53S WCI  17
LORAIN-ELYRIA  FAIR      29  12  49 NE14G20   30.54S WCI  18
ASHTABULA      FAIR      26  10  50 VRB7G24   30.51S WCI  18
AKRON-CANTON   FAIR      37  13  37 N12       30.45F
WOOSTER        FAIR      33  15  47 NE16      30.48S WCI  23
MANSFIELD      FAIR      32  17  54 NW12      30.48S WCI  23
YOUNGSTOWN     FAIR      32  10  40 N15G24    30.45F WCI  22
$$

OHZ042-051>053-060>062-070>072-077>081-222100-
  SOUTHWEST OHIO

CITY           SKY/WX    TMP DP  RH WIND       PRES   REMARKS
CINC-COVINGTON FAIR      41  18  39 NE12G21   30.44F
CINC-LUNKEN    FAIR      42  21  43 NE14G20   30.47F
HAMILTON       FAIR      42  22  44 E12       30.48F
DAYTON         FAIR      38  18  44 NE13      30.48F
WRIGHT-PAT AFB FAIR      38  16  41 N12G17    30.47F
DAYTON GENERAL FAIR      39  19  44 E12       30.45F
WILMINGTON     FAIR      36  23  59 NE14G22   30.45F
$$

OHZ036-037-039>041-045>050-054>059-063>069-073>076-082>088-222100-
  CENTRAL AND SOUTHEAST OHIO

CITY           SKY/WX    TMP DP  RH WIND       PRES   REMARKS
COLUMBUS       FAIR      40  16  37 VRB7G17   30.47F
OSU AIRPORT    FAIR      38  16  40 NE8       30.47F
BOLTON FIELD   SUNNY     37  18  44 NE7       30.48F
RICKENBACK AFB FAIR      38  16  41 NE8       30.47F
NEWARK         FAIR      39  13  34 N8        30.46F
MARION         FAIR      35  17  47 NE9G21    30.50F WCI  28
LANCASTER      FAIR      40  17  39 E8        30.47F
ZANESVILLE     FAIR      39  14  36 VRB7      30.45F
NEW PHILLY     FAIR      38  14  37 NE10      30.46S
$$




USA.gov is the U.S. government's official web portal to all federal, state and local government web resources and services.